MIDAS 5 DEB, 274

Orbit data source: Space-Track

MIDAS 5 DEB, 274 is space debris in LEO originally from a launch on Mon, 09 Apr 1962 UTC launched from the Air Force Western Test Range (AFWTR). Debris objects in space refer to the collection of defunct objects orbiting the Earth. Examples of debris include non-operational satellites, rocket bodies, and fragments generated from explosions, collisions, or faulty payload assembly.

Loading next visibility...
Identifier
274, 1962-010D
Orbit
LEO
Last TLE update
21 hours ago
Origin
Manufacturer
Unknown
Mission
Spacecraft
Bus & Motor
Unknown
Mass
~10 kg wet, ~10 kg dry
Launch date (UTC)
1962-04-09 (63 years ago)
Launch vehicle
Unknown
Launch site
Air Force Western Test Range (AFWTR)
Object type
Payload
Rocket body
Debris
Shape & HBR
Unknown
Radar Cross Section
Medium (>0.1 m² and <1 m²)

Expand to show TLE details & history

TLE from 21 hours ago
0 MIDAS 5 DEB
1 00274U 62010D   25114.74824933 -.00000063  00000-0 -13407-1 0  9992
2 00274  86.6700  34.1134 0353394 320.7431  36.8327  9.39390875161498
Epoch: 2025-04-24T17:57Z
Definitive object data (Epoch: 2025-04-24T17:57:28.742Z)
Latitude
-0.00003°
Longitude
-88.27159°
Altitude
2,848.137 km
Speed
6.665 km/s
True Right ascension
02h 16m 27s
True Declination
0° 00' 00"
Sunlit
Object was in daylight at TLE epoch
Visualization TLE readout
Latitude
60.62439°
Longitude
-82.48863°
Altitude
3,172.797 km
Speed
6.448 km/s
Apparent Right ascension
06h 29m 12s
Apparent Declination
37° 57' 41"
Sunlit
Object is in daylight
Visualization observer readout
Local Sidereal Time
22:04:27
Azimuth
39.554° NE
Elevation
2.16°
Doppler factor
1
Orbital elements
Apogee altitude
3,442.702 km
Perigee altitude
2,772.27 km
Semi-major axis
9,485.623 km
Eccentricity
0.0353394
Inclination
86.67°
RAAN
34.1134°
Arg. of periapsis
320.7431°
True anomaly
39.34839°
Mean anomaly
36.8327°
Eccentric anomaly
38.08156°
Mean motion
2.34933 °/min
BSTAR
-0.013407
Orbital period
153.24 mins
Loading maneuver chart data...
Loading SW <> Apogee altitude chart data...
Loading historical data...
Loading historical data...
Loading historical data...
Loading historical data...
Loading historical data...
Loading historical data...
Loading historical data...

MIDAS 5 DEB Visibility forecast

Observer location: undefined°, undefined°

Span
Click to sort rows by Start time (UTC) header in descending order
Start Az.
Max El. time (UTC)
Max El. Az.
Max El.
End time (UTC)
End Az.
26 mins2025-04-25 17:03:26.886Z125.336° SE2025-04-25 17:15:26.886Z71.265° E28.989°2025-04-25 17:29:26.886Z13.315° NNE
30 mins2025-04-25 19:33:26.886Z194.172° SSW2025-04-25 19:47:26.886Z275.453° WNW43.051°2025-04-25 20:03:26.886Z359.555° N
15 mins2025-04-25 22:19:26.886Z281.114° WNW2025-04-25 22:26:26.886Z309.32° NW14.773°2025-04-25 22:34:26.886Z339.828° N
26 mins2025-04-26 03:55:26.886Z12.845° NNE2025-04-26 04:08:26.886Z62.843° ENE23.059°2025-04-26 04:21:26.886Z111.855° ESE
34 mins2025-04-26 06:28:26.886Z357.496° N2025-04-26 06:45:26.886Z160.093° S44.966°2025-04-26 07:02:26.886Z181.989° SSW
23 mins2025-04-26 09:04:26.886Z338.399° N2025-04-26 09:15:26.886Z295.777° NW23.808°2025-04-26 09:27:26.886Z250.596° W
|